Location: Arnolds Mill
(42.3415°N, 73.5951°W)
Time: 05:22:07
(UTC+00:00)

Oscar 11 - Pass Details

Date: 08 May 2026
Orbit: 591 x 601 km, 97.8° (Epoch: 11 June)

Event Time Altitude Azimuth Distance (km) Brightness Sun altitude
Rises 07:20:02 0° 32° (NNE) 2,859 12.0 -21.3°
Reaches altitude 10° 07:23:02 10° 55° (NE) 1,950 10.7 -21.0°
Maximum altitude 07:25:33 15° 91° (E) 1,621 9.6 -20.7°
Drops below altitude 10° 07:28:04 10° 128° (SE) 1,939 9.6 -20.4°
Enters shadow 07:29:55 - 145° (SE) 2,464 10.0 -20.2°
